Location: Bussy-Saint-Georges
(48.8410°N, 2.7017°E)
Time: 16:10:00
(UTC+00:00)

ATLAS 5 CENTAUR R/B - Pass Details

Date: 18 October 2021
Orbit: 497 x 1159 km, 63.4° (Epoch: 25 November)

Event Time Altitude Azimuth Distance (km) Brightness Sun altitude
Rises 18:01:03 0° 200° (SSW) 2,586 5.0 -11.8°
Reaches altitude 10° 18:03:12 10° 192° (SSW) 1,734 4.0 -12.2°
Maximum altitude 18:06:48 40° 122° (ESE) 811 1.8 -12.8°
Enters shadow 18:09:43 17° 59° (ENE) 1,530 3.1 -13.3°
